| time (UTC) | temp C | wind direction | speed KPH | gust KPH | rain 1hr cm | rain 24hr cm | rain mn cm | humidity % | barometer mb |
| 20260505040020 | -17 | 180 | 6.4 | 14.5 | 0.00 | 0.00 | 0.00 | 67 | |
| 20260505033020 | -17 | 180 | 4.8 | 11.3 | 0.00 | 0.00 | 0.00 | 68 | |
| 20260505030024 | 12 | 180 | 4.8 | 9.7 | 0.00 | 0.00 | 0.00 | 68 | 1010.4 |
| 20260505023021 | 13 | 180 | 4.8 | 11.3 | 0.00 | 0.00 | 0.00 | 65 | 1010.5 |
| 20260505020040 | 13 | 180 | 4.8 | 9.7 | 0.00 | 0.00 | 0.00 | 64 | 1010.6 |
| 20260505013015 | 13 | 157 | 4.8 | 8.0 | 0.00 | 0.00 | 0.00 | 63 | 1010.4 |
| 20260505010022 | 14 | 157 | 4.8 | 9.7 | 0.00 | 0.00 | 0.00 | 61 | 1010.1 |
| 20260505003022 | 15 | 180 | 3.2 | 6.4 | 0.00 | 0.00 | 0.00 | 55 | 1009.6 |
| 20260505000022 | -17 | 202 | 3.2 | 8.0 | 0.00 | 0.00 | 0.00 | 46 | |
| 20260504233025 | -17 | 202 | 3.2 | 6.4 | 0.00 | 0.00 | 0.00 | 43 | |
| 20260504230022 | 18 | 202 | 3.2 | 6.4 | 0.00 | 0.00 | 0.00 | 41 | 1008.4 |
| 20260504223016 | 19 | 180 | 3.2 | 8.0 | 0.00 | 0.00 | 0.00 | 39 | 1008.4 |
| 20260504220021 | 20 | 202 | 3.2 | 8.0 | 0.00 | 0.00 | 0.00 | 37 | 1008.7 |
| 20260504213016 | 20 | 225 | 3.2 | 9.7 | 0.00 | 0.00 | 0.00 | 36 | 1009.0 |
| 20260504210023 | 20 | 247 | 3.2 | 9.7 | 0.00 | 0.00 | 0.00 | 35 | 1009.1 |
| 20260504203020 | 21 | 247 | 3.2 | 11.3 | 0.00 | 0.00 | 0.00 | 33 | 1009.0 |
| 20260504200042 | -17 | 225 | 3.2 | 8.0 | 0.00 | 0.00 | 0.00 | 33 | |
| 20260504193021 | -17 | 202 | 3.2 | 9.7 | 0.00 | 0.00 | 0.00 | 32 | |
| 20260504190021 | 21 | 247 | 4.8 | 9.7 | 0.00 | 0.00 | 0.00 | 35 | 1009.7 |
| 20260504183021 | 20 | 247 | 4.8 | 11.3 | 0.00 | 0.00 | 0.00 | 36 | 1010.0 |
| 20260504180021 | 20 | 225 | 3.2 | 9.7 | 0.00 | 0.00 | 0.00 | 35 | 1010.4 |
| 20260504173042 | 19 | 247 | 4.8 | 17.7 | 0.00 | 0.00 | 0.00 | 36 | 1010.8 |